This is the latest recevied weather packets stored in our database for station/object EA6AMI-5. If no packets are shown the sender has not sent any weather packets the latest 10 day(s).
| Time | Temp. | Humidity | Pressure | Rain* | Wind** | Luminosity | Snow |
|---|---|---|---|---|---|---|---|
| 1787429344 | 25.56° C | 69% | 1017.2 hPa | 0 mm | - | 0 W/m² | - |
| 1787428803 | 26.11° C | 69% | 1017.2 hPa | 0 mm | - | 0 W/m² | - |
| 1787428444 | 26.11° C | 69% | 1017 hPa | 0 mm | - | 0 W/m² | - |
| 1787427903 | 26.11° C | 69% | 1017.1 hPa | 0 mm | - | 0 W/m² | - |
| 1787427364 | 26.11° C | 69% | 1016.7 hPa | 0 mm | - | 0 W/m² | - |
| 1787426824 | 26.11° C | 69% | 1016.5 hPa | 0 mm | - | 0 W/m² | - |
| 1787426283 | 26.11° C | 69% | 1016.4 hPa | 0 mm | - | 0 W/m² | - |
| 1787425743 | 26.11° C | 69% | 1016.3 hPa | 0 mm | - | 0 W/m² | - |
| 1787425203 | 26.11° C | 68% | 1016.3 hPa | 0 mm | - | 0 W/m² | - |
| 1787424844 | 26.11° C | 68% | 1016.2 hPa | 0 mm | - | 0 W/m² | - |
| 1787424304 | 26.67° C | 68% | 1016 hPa | 0 mm | - | 0 W/m² | - |
| 1787423763 | 26.67° C | 67% | 1016.2 hPa | 0 mm | - | 2 W/m² | - |
| 1787423224 | 26.67° C | 67% | 1016 hPa | 0 mm | - | 6 W/m² | - |
| 1787422683 | 26.67° C | 66% | 1016 hPa | 0 mm | - | 11 W/m² | - |
| 1787422144 | 27.22° C | 65% | 1016 hPa | 0 mm | - | 17 W/m² | - |
| 1787421604 | 27.22° C | 65% | 1015.9 hPa | 0 mm | - | 22 W/m² | - |
| 1787421243 | 27.78° C | 64% | 1015.9 hPa | 0 mm | - | 26 W/m² | - |
| 1787420703 | 27.78° C | 63% | 1015.9 hPa | 0 mm | - | 36 W/m² | - |
| 1787420163 | 27.78° C | 63% | 1015.8 hPa | 0 mm | - | 46 W/m² | - |
| 1787419623 | 28.33° C | 62% | 1016 hPa | 0 mm | - | 55 W/m² | - |
| 1787419083 | 28.33° C | 61% | 1015.9 hPa | 0 mm | - | 63 W/m² | - |
| 1787418543 | 28.89° C | 60% | 1015.9 hPa | 0 mm | - | 73 W/m² | - |
| 1787418003 | 28.89° C | 59% | 1015.6 hPa | 0 mm | - | 82 W/m² | - |
| 1787417643 | 28.89° C | 59% | 1015.8 hPa | 0 mm | - | 88 W/m² | - |
| 1787417104 | 29.44° C | 59% | 1015.9 hPa | 0 mm | - | 96 W/m² | - |
* Rain latest hour (hover to see other rain measurements)
** Current wind speed in m/s (hover to see current wind gust speed)